Tracking 19644 objects as of 26-Apr-2019
HD Live streaming from Space Station
objects crossing your sky now

CZ-4 DEB

Track CZ-4 DEB now!
10-day predictions


NORAD ID: 26286
Int'l Code: 1999-057FY
Perigee: 676.7 km
Apogee: 781.7 km
Inclination: 98.5 °
Period: 99.2 minutes
Semi major axis: 7100 km
RCS: 0.0126 m2 (small)
Launch date: October 14, 1999
Source: People's Republic of China (PRC)
Launch site: Taiyaun Space Center, China (TSC)

Note: This is SATELLITE DEBRIS
aabbcc
Your satellite tracking list
Your tracking list is empty




NASA's NSSDC Master Catalog

Two Line Element Set (TLE):
1 26286U 99057FY  19114.50064453  .00000301  00000-0  85661-4 0  9991
2 26286  98.5096  97.6071 0073916 339.6912 135.4643 14.51105204  7581
Source of the keplerian elements: AFSPC